Temperature
18 18 18 18 18 18 18 18 18 18 18 18 18 18 18 18 18 18 18 18 18 18 18 18 17 17 17 17 17 17 17 17 17 17 17 16 16 16 16 16 16 16 16
18 18 18 18 18 18 18 18 18 18 18 18 18 18 18 18 18 18 18 18 18 18 18 18 17 17 17 17 17 17 17 17 17 17 17 17 17 16 16 16 16 16 16
18 18 18 18 18 18 18 18 18 18 18 18 18 18 18 18 18 18 18 18 18 18 18 18 18 17 17 17 17 17 17 17 17 17 17 17 17 16 16 16 16 16 16
18 18 18 18 18 18 18 18 18 18 18 18 18 18 18 18 18 18 18 18 18 18 18 18 18 18 17 17 17 17 17 17 17 17 17 17 17 16 16 16 16 16 16
18 18 18 18 18 18 18 18 18 18 18 18 18 18 18 18 18 18 18 18 18 18 18 18 18 18 18 17 17 17 17 17 17 17 17 17 17 17 16 16 16 16 16
18 18 18 18 18 18 18 18 18 18 18 18 18 18 18 18 18 18 18 18 18 18 18 18 18 18 18 17 17 17 17 17 17 17 17 17 17 17 16 16 16 16 16
18 18 18 18 18 18 18 18 18 18 18 18 18 18 18 18 18 18 18 18 18 18 18 18 17 17 17 17 17 17 17 17 17 17 17 17 17 17 17 16 16 16 16
18 18 18 18 18 18 18 18 18 18 18 18 18 18 18 18 18 18 18 18 18 18 17 17 17 17 17 17 17 17 17 17 17 17 17 17 17 17 17 17 16 16 16
18 18 18 18 18 18 18 18 18 18 18 18 17 17 17 17 17 17 17 17 17 17 17 17 17 17 17 17 17 17 17 17 17 17 17 17 16 16 17 16 16 16 16
18 18 18 18 18 18 18 18 18 18 18 17 17 17 17 17 17 17 17 17 17 17 17 17 17 17 17 17 17 17 17 17 17 17 16 16 16 16 16 16 16 16 16
18 18 18 18 18 18 18 17 17 17 17 17 17 17 17 17 17 17 17 17 17 17 17 17 17 17 17 17 16 17 17 17 16 16 16 16 16 16 16 16 16 16 16
18 18 18 17 17 17 17 17 17 17 17 17 17 17 17 17 17 17 17 17 17 17 17 17 17 17 17 17 16 16 16 16 16 16 16 16 16 16 16 16 16 16 16
18 18 17 17 17 17 17 17 17 17 17 17 17 17 17 17 16 16 16 16 16 17 17 17 17 17 17 17 16 16 16 16 16 16 16 16 16 16 16 15 15 15 15
18 17 17 17 17 17 17 17 17 17 17 17 17 17 16 16 16 16 16 16 16 16 16 17 17 17 16 16 16 16 16 16 16 16 16 16 16 16 15 15 15 15 15
18 17 17 17 17 17 17 17 17 17 17 17 17 16 16 16 16 16 16 16 16 16 16 16 16 16 16 16 16 16 16 16 16 16 16 15 15 15 15 15 15 15 15
17 17 17 17 17 17 17 17 17 17 17 17 16 16 16 16 16 16 16 16 16 16 16 16 16 16 16 16 16 16 16 16 15 15 15 15 15 15 15 15 15 15 15
17 17 17 17 17 17 17 17 17 17 16 16 16 16 16 16 16 16 16 16 16 16 16 16 16 16 16 16 16 16 16 15 15 15 15 15 15 15 15 15 15 15 15
17 17 17 17 17 17 16 16 16 16 16 16 16 16 16 16 16 16 16 16 16 16 16 16 16 16 16 15 15 15 15 15 15 15 15 15 15 15 15 14 14 14 14
17 17 17 17 16 16 16 16 16 16 16 16 16 16 16 16 16 16 15 15 16 15 15 15 15 15 15 15 15 15 15 15 15 15 14 14 14 14 14 14 14 14 14
17 17 17 16 16 16 16 16 16 16 16 16 16 15 15 15 15 15 15 15 15 15 15 15 15 15 15 15 14 14 14 14 14 14 14 14 14 14 14 14 14 14 14
16 16 16 16 16 16 16 15 15 15 15 15 15 15 15 15 15 15 15 15 15 15 15 14 14 14 14 14 14 14 14 14 14 14 14 14 14 14 14 13 13 13 13
16 16 16 16 16 16 15 15 15 15 15 15 15 15 15 15 15 15 14 14 14 14 14 14 14 14 14 14 14 14 13 13 13 13 13 13 13 13 13 13 13 13 13
16 16 16 16 15 16 15 15 15 15 14 14 14 14 14 14 14 14 14 14 14 14 14 14 14 14 14 14 13 13 13 13 13 13 13 13 13 13 13 13 13 13 13
16 16 16 15 15 15 15 15 15 14 14 14 14 14 14 14 14 14 14 14 14 14 14 14 13 13 13 13 13 13 13 13 13 12 12 12 13 13 13 12 13 12 12
16 16 15 15 15 15 14 14 14 14 14 14 14 14 14 14 14 13 13 13 14 14 13 13 13 13 13 13 13 12 12 12 12 12 12 12 12 12 12 12 12 12 12
16 15 15 15 15 14 14 14 14 14 14 14 13 13 13 13 13 13 13 13 13 13 13 13 13 13 13 13 13 12 12 12 12 12 12 12 12 12 11 12 12 12 12
Wind_Speed
1 0 0 0 0 0 1 1 1 1 0 1 1 2 2 2 2 1 1 2 3 4 5 6 6 7 7 8 8 8 8 8 8 9 9 10 10 10 10 10 10 11 11
1 0 0 1 1 1 2 2 2 1 1 1 1 1 1 1 2 1 1 2 2 3 4 4 5 6 7 7 8 9 9 9 9 9 9 9 9 9 10 10 10 10 10
2 1 1 1 2 1 1 1 1 1 1 0 0 1 1 1 2 2 2 2 2 3 4 4 5 5 6 7 7 8 9 9 9 9 9 8 8 9 10 11 11 11 11
2 1 1 1 1 1 1 1 1 1 0 0 0 1 1 1 2 2 2 2 2 3 3 4 5 5 5 6 7 7 8 9 8 8 8 8 9 9 10 11 11 12 11
2 2 1 1 1 1 1 1 1 1 1 1 1 0 1 1 2 2 2 2 3 3 3 3 4 4 5 5 6 6 7 8 8 8 8 8 8 9 9 10 11 11 11
2 2 1 0 1 1 0 1 1 1 1 1 0 0 1 1 1 1 2 2 2 3 3 3 3 3 4 5 5 5 5 6 7 7 7 7 8 8 10 10 10 11 11
2 2 1 0 0 1 1 1 1 1 1 1 1 1 2 1 1 1 1 1 2 3 3 3 3 3 3 4 5 6 6 6 6 6 6 6 7 7 8 10 10 9 10
2 2 1 1 1 1 1 1 2 1 0 1 2 1 1 2 2 1 1 1 2 2 2 3 3 4 4 3 4 5 6 6 6 6 5 5 5 6 6 6 7 8 9
2 2 2 1 1 1 1 1 2 3 2 1 1 2 2 2 2 2 1 1 1 1 2 3 3 4 4 4 4 5 6 6 6 6 5 5 5 6 6 5 5 7 8
1 2 2 1 1 1 1 1 1 2 3 1 1 0 1 2 1 1 2 2 2 2 2 2 3 3 3 3 4 5 6 6 5 5 5 5 5 6 6 6 5 5 6
0 1 2 1 1 1 1 1 1 2 2 2 2 1 1 1 1 1 2 2 2 2 2 3 2 3 3 4 4 5 5 5 5 5 5 5 5 5 5 6 6 6 6
1 1 1 1 1 1 1 1 2 2 2 2 2 2 2 2 2 2 2 2 2 2 2 2 2 3 4 4 5 5 5 5 5 5 5 6 6 6 5 5 6 6 6
1 2 2 2 1 1 1 1 2 1 2 3 3 3 3 3 2 2 2 2 2 2 2 2 2 3 3 3 4 5 5 5 5 6 6 6 6 5 5 5 5 5 5
2 2 2 2 1 1 1 1 1 2 1 2 3 3 3 3 3 3 3 2 2 2 2 3 2 3 3 4 5 5 4 5 5 5 6 6 6 6 6 5 5 5 5
2 1 1 1 1 1 1 1 1 2 2 2 3 3 3 3 3 3 3 3 3 3 3 3 2 2 3 3 4 4 4 4 4 5 5 6 7 7 7 6 6 5 5
2 1 1 1 1 1 1 1 1 2 1 2 2 2 3 2 2 2 3 3 3 3 4 3 3 2 2 3 3 3 4 4 5 5 5 5 5 6 7 6 6 6 6
3 3 2 2 1 1 1 1 1 1 1 2 2 2 3 3 2 2 3 3 3 3 4 3 2 2 2 2 2 2 3 3 4 4 4 4 4 5 6 6 6 5 5
3 3 3 2 2 1 1 1 2 1 2 2 3 2 3 2 2 2 2 3 4 4 4 4 2 2 2 2 2 2 2 2 3 4 4 4 4 4 4 5 6 6 5
3 3 3 2 2 2 2 2 2 2 2 3 3 3 3 3 3 3 3 3 3 3 3 3 3 2 2 2 1 2 2 2 3 3 4 4 4 4 4 4 5 6 6
4 4 3 3 3 2 2 2 2 2 2 2 3 3 3 4 4 4 4 3 3 2 2 2 2 2 2 2 1 2 2 2 2 2 3 3 3 4 5 5 5 5 5
4 4 3 3 2 2 2 2 2 3 2 3 3 3 3 4 4 4 3 3 3 2 2 2 2 2 2 2 3 2 2 2 2 2 2 2 2 2 3 4 5 5 5
3 3 3 3 3 3 3 4 3 3 3 3 3 4 4 3 3 3 3 4 4 3 3 3 3 4 4 4 3 3 2 2 2 1 1 2 1 2 3 4 4 5 5
3 3 3 3 3 3 3 3 4 3 3 3 3 3 3 3 3 2 3 3 3 4 5 5 5 5 5 5 5 4 4 3 3 2 1 2 2 2 3 4 5 5 5
3 3 3 3 3 3 3 2 2 2 2 3 3 3 2 3 3 2 2 3 3 4 5 5 5 6 6 5 6 5 4 3 2 1 2 2 2 2 3 3 4 5 5
3 3 2 3 3 3 3 2 2 1 1 3 3 2 2 3 3 2 1 3 4 4 4 4 5 5 5 5 5 3 3 2 2 2 2 2 1 2 2 2 2 3 4
3 3 2 3 3 4 3 3 3 2 1 2 2 2 3 3 3 2 2 2 4 5 4 3 3 2 2 3 6 5 5 4 2 2 2 2 1 1 1 1 1 2 2
Wind_Direction
212 198 332 354 285 180 171 164 184 180 223 257 231 194 187 189 209 222 225 217 216 219 221 217 215 215 218 219 219 219 218 219 220 219 220 220 221 222 221 222 224 227 224
198 192 290 285 271 237 203 193 209 205 225 225 252 214 193 182 191 199 230 233 215 212 212 217 225 227 223 221 220 219 218 218 219 220 222 223 222 222 224 225 227 229 227
195 185 219 269 267 245 204 186 189 164 199 197 233 232 202 200 200 205 219 221 224 219 218 226 231 229 226 223 222 219 218 218 220 221 223 223 224 226 227 228 228 227 226
196 176 209 259 261 187 164 166 156 147 121 166 243 257 239 232 222 215 216 224 231 235 235 233 235 235 231 229 228 225 221 219 220 222 223 225 225 226 227 229 230 227 227
186 171 215 258 213 149 172 190 138 159 168 212 240 237 231 240 243 222 213 221 228 237 238 236 236 232 235 236 232 231 228 223 222 224 227 228 227 228 230 229 229 228 229
190 164 190 239 162 130 87 182 169 146 177 195 210 349 310 273 287 256 244 242 236 238 239 239 235 237 242 244 245 244 240 232 229 229 233 235 235 234 232 228 228 230 230
179 167 194 217 163 156 185 179 155 114 50 91 83 24 352 348 273 267 262 260 256 241 227 227 227 232 246 249 253 256 254 245 236 232 234 237 238 238 234 229 229 230 231
192 187 180 186 176 153 113 125 137 137 129 122 126 97 358 337 332 315 283 260 266 241 229 230 226 231 235 243 252 255 258 253 248 244 240 238 239 236 236 234 232 230 231
199 184 168 156 148 155 180 191 173 166 179 177 125 140 152 239 301 325 306 292 273 243 245 239 234 236 237 243 253 258 258 252 252 252 252 249 246 238 229 228 230 230 230
178 179 165 155 145 156 183 215 183 178 157 176 194 157 159 163 171 302 312 305 292 253 254 251 251 244 241 244 250 257 259 254 253 252 254 247 245 243 235 229 232 237 239
166 192 175 165 161 172 197 200 158 169 166 173 177 169 151 123 164 188 275 302 309 279 261 254 249 248 242 240 245 253 253 248 245 246 250 250 252 252 244 235 234 235 238
272 245 196 185 196 192 207 210 194 185 186 173 175 171 170 176 198 192 228 259 276 287 281 267 257 253 245 241 245 248 246 240 238 240 242 245 250 249 244 242 235 235 237
238 248 226 210 211 216 214 194 190 215 206 191 194 202 203 212 194 188 205 237 258 283 287 271 254 251 250 242 246 250 243 240 238 237 239 246 251 245 243 248 243 242 243
224 230 213 208 210 210 221 193 203 226 214 216 214 205 213 228 208 196 194 197 246 277 274 274 271 250 253 242 247 237 234 235 235 237 243 249 252 245 240 242 243 243 241
208 194 196 201 215 207 220 208 225 236 221 226 232 221 225 233 214 212 202 196 197 245 264 263 261 258 249 244 250 235 235 241 243 246 252 251 250 244 238 236 234 230 230
189 173 196 196 208 203 210 206 240 248 228 251 244 233 237 241 226 214 209 208 205 214 249 251 247 265 257 261 257 247 250 256 259 257 254 252 250 238 236 233 234 232 230
181 186 192 191 201 216 243 222 244 238 233 267 276 252 255 246 236 232 219 213 216 210 239 265 255 265 240 261 270 256 255 255 260 257 255 252 252 241 235 230 228 230 228
191 195 191 185 204 228 237 230 248 253 238 257 268 267 274 265 255 251 233 227 225 218 222 254 267 271 256 256 256 253 268 266 259 262 258 254 247 241 238 229 224 225 225
196 197 188 192 205 216 234 240 234 241 241 250 258 260 268 261 262 258 247 244 236 227 220 235 262 261 263 265 269 282 285 287 278 274 261 255 253 250 251 243 228 223 224
197 202 202 204 207 210 222 235 241 247 254 264 262 260 264 255 253 255 252 246 235 222 213 225 250 263 259 258 235 264 286 291 281 294 296 279 265 256 253 247 237 229 227
199 199 195 201 207 209 225 232 243 249 254 269 276 274 274 269 256 251 254 245 231 222 219 224 243 251 250 238 236 231 251 271 271 273 285 291 280 272 274 261 246 237 232
186 181 191 203 214 224 238 236 233 246 247 253 270 283 287 283 288 274 264 243 220 217 223 226 238 240 242 236 230 224 226 251 264 250 248 276 263 266 267 260 249 233 229
181 192 201 205 223 234 231 239 234 228 239 249 258 272 292 301 293 291 284 270 251 233 221 220 231 243 241 227 215 220 219 226 242 254 241 267 271 265 271 264 246 237 232
192 204 210 212 224 250 244 241 231 223 241 253 254 251 261 284 287 281 278 286 276 258 241 235 234 241 244 229 215 218 220 231 266 248 210 242 257 265 279 272 246 236 233
202 212 214 215 224 255 247 219 173 201 241 267 269 268 266 275 283 280 267 284 296 294 278 249 241 251 247 228 201 183 186 207 252 248 206 220 251 273 277 271 269 242 233
204 207 222 229 227 245 247 219 181 190 230 268 279 275 263 281 291 271 255 264 284 294 301 302 288 285 262 225 197 199 197 202 227 242 205 204 218 234 278 278 277 277 255
Height
1547 1547 1548 1548 1549 1550 1550 1551 1552 1552 1553 1554 1554 1555 1555 1555 1556 1556 1556 1556 1556 1557 1557 1557 1558 1558 1559 1559 1560 1561 1561 1562 1563 1564 1565 1565 1566 1567 1568 1568 1569 1570 1571
1547 1548 1548 1549 1549 1550 1550 1551 1551 1552 1552 1553 1554 1554 1555 1555 1555 1556 1556 1556 1556 1556 1556 1557 1557 1557 1558 1558 1559 1559 1560 1560 1561 1562 1562 1563 1564 1565 1565 1566 1567 1567 1568
1547 1548 1548 1549 1549 1549 1550 1550 1550 1551 1552 1552 1553 1554 1554 1554 1555 1555 1555 1555 1555 1555 1556 1556 1556 1557 1557 1557 1558 1558 1558 1559 1559 1560 1560 1561 1562 1562 1563 1563 1564 1565 1566
1548 1548 1548 1549 1549 1549 1549 1550 1550 1550 1551 1552 1552 1553 1553 1554 1554 1554 1555 1555 1555 1555 1555 1555 1555 1556 1556 1556 1556 1557 1557 1557 1557 1558 1558 1558 1559 1560 1560 1561 1561 1562 1563
1547 1548 1548 1548 1549 1549 1549 1549 1549 1550 1550 1551 1551 1552 1552 1553 1553 1554 1554 1554 1554 1554 1554 1554 1555 1555 1555 1555 1555 1555 1555 1555 1556 1556 1556 1556 1557 1557 1558 1558 1558 1559 1560
1547 1547 1548 1548 1548 1548 1548 1548 1549 1549 1549 1550 1550 1550 1551 1552 1552 1553 1553 1553 1553 1553 1553 1553 1554 1554 1554 1554 1554 1554 1554 1554 1554 1554 1554 1554 1554 1555 1555 1555 1556 1556 1557
1547 1547 1547 1547 1547 1547 1548 1548 1548 1548 1548 1549 1549 1549 1550 1550 1551 1551 1551 1552 1552 1552 1552 1552 1552 1552 1553 1553 1553 1553 1552 1552 1552 1552 1552 1552 1552 1552 1552 1553 1553 1554 1554
1546 1546 1546 1546 1547 1547 1547 1547 1547 1547 1547 1548 1548 1549 1549 1550 1549 1549 1550 1550 1550 1550 1550 1551 1551 1551 1551 1551 1551 1551 1550 1550 1550 1550 1550 1549 1550 1550 1550 1550 1550 1551 1551
1545 1545 1545 1546 1546 1546 1546 1546 1546 1546 1546 1547 1548 1548 1548 1548 1548 1548 1548 1548 1548 1549 1549 1549 1549 1549 1549 1549 1549 1548 1548 1548 1548 1548 1547 1547 1547 1547 1547 1547 1548 1548 1548
1544 1544 1544 1544 1544 1545 1545 1545 1544 1545 1545 1546 1546 1547 1548 1547 1547 1546 1547 1547 1547 1547 1547 1547 1547 1547 1547 1547 1547 1546 1546 1546 1546 1545 1545 1545 1544 1545 1545 1545 1545 1545 1545
1542 1542 1543 1543 1543 1543 1543 1543 1543 1543 1544 1544 1544 1545 1545 1545 1545 1545 1544 1545 1545 1545 1545 1545 1545 1545 1545 1545 1545 1544 1544 1544 1544 1543 1543 1543 1543 1542 1542 1542 1542 1542 1542
1540 1541 1541 1541 1541 1542 1542 1542 1541 1541 1542 1542 1542 1542 1543 1543 1543 1543 1543 1542 1542 1543 1543 1543 1543 1543 1543 1543 1542 1542 1542 1542 1541 1541 1541 1541 1540 1540 1540 1539 1539 1540 1540
1538 1539 1539 1539 1540 1540 1540 1540 1540 1540 1540 1540 1540 1540 1540 1540 1541 1541 1541 1540 1540 1540 1540 1540 1540 1540 1540 1540 1540 1540 1540 1539 1539 1539 1539 1538 1538 1538 1537 1537 1537 1537 1537
1536 1537 1537 1537 1538 1538 1538 1538 1538 1538 1538 1538 1538 1538 1538 1538 1538 1538 1539 1539 1538 1537 1537 1537 1537 1538 1538 1538 1538 1537 1537 1537 1536 1536 1536 1536 1536 1535 1535 1535 1535 1534 1534
1534 1535 1535 1535 1535 1536 1536 1536 1536 1535 1535 1535 1535 1535 1535 1535 1536 1536 1536 1536 1537 1535 1534 1534 1534 1534 1535 1535 1535 1534 1534 1534 1534 1534 1533 1533 1533 1533 1532 1532 1532 1532 1532
1532 1533 1533 1533 1533 1534 1534 1534 1533 1533 1533 1533 1533 1533 1532 1532 1533 1533 1533 1533 1533 1533 1532 1531 1532 1532 1532 1531 1531 1531 1531 1531 1531 1531 1531 1531 1530 1530 1530 1529 1529 1528 1529
1530 1530 1531 1531 1531 1531 1531 1531 1531 1531 1531 1531 1530 1530 1530 1530 1530 1530 1530 1530 1530 1530 1529 1528 1529 1529 1528 1528 1528 1528 1527 1527 1527 1528 1528 1527 1527 1527 1527 1526 1526 1525 1525
1527 1528 1528 1528 1529 1529 1529 1529 1529 1529 1528 1528 1528 1527 1527 1527 1527 1526 1526 1526 1526 1526 1526 1525 1525 1525 1525 1525 1525 1524 1524 1524 1524 1524 1524 1524 1524 1524 1523 1523 1523 1522 1522
1524 1524 1525 1525 1526 1526 1526 1526 1526 1526 1526 1525 1525 1524 1524 1524 1523 1523 1523 1523 1522 1522 1522 1522 1521 1521 1521 1521 1521 1521 1521 1520 1520 1521 1521 1521 1521 1520 1520 1520 1520 1519 1519
1521 1521 1522 1522 1523 1523 1523 1523 1523 1523 1523 1522 1522 1521 1521 1520 1520 1520 1519 1519 1519 1518 1518 1518 1518 1518 1517 1517 1517 1517 1517 1517 1517 1517 1517 1517 1517 1517 1517 1517 1517 1516 1516
1517 1518 1519 1519 1520 1520 1520 1520 1520 1520 1520 1519 1519 1518 1518 1517 1517 1517 1516 1516 1516 1515 1515 1514 1514 1514 1514 1513 1513 1513 1513 1513 1513 1513 1513 1513 1513 1513 1514 1513 1513 1513 1513
1514 1515 1516 1517 1517 1517 1516 1517 1517 1517 1517 1516 1516 1515 1515 1514 1514 1513 1513 1512 1512 1512 1511 1511 1510 1510 1510 1510 1510 1509 1510 1510 1509 1510 1510 1509 1509 1509 1510 1510 1509 1509 1509
1511 1512 1512 1513 1513 1513 1514 1514 1514 1514 1513 1513 1513 1512 1512 1512 1511 1510 1509 1509 1508 1508 1508 1507 1506 1506 1506 1506 1506 1506 1506 1506 1506 1506 1506 1505 1506 1506 1506 1506 1506 1506 1506
1509 1509 1509 1510 1510 1510 1511 1511 1511 1510 1510 1510 1509 1509 1509 1508 1508 1507 1506 1505 1504 1504 1503 1503 1502 1503 1503 1503 1503 1503 1502 1503 1503 1503 1503 1502 1502 1502 1502 1502 1502 1502 1503
1505 1505 1506 1506 1506 1507 1507 1507 1507 1507 1507 1506 1506 1506 1506 1505 1505 1504 1503 1502 1500 1500 1499 1498 1498 1498 1499 1499 1499 1499 1499 1499 1499 1499 1500 1499 1499 1499 1499 1499 1499 1499 1500
1502 1502 1503 1503 1503 1503 1504 1504 1504 1504 1503 1503 1503 1503 1502 1502 1502 1501 1500 1498 1497 1496 1495 1495 1494 1495 1495 1495 1495 1495 1495 1496 1495 1496 1496 1496 1496 1496 1496 1496 1496 1496 1497